GW7110 Weather Reports


time (UTC)temp
C
wind
direction
speed
KPH
gust
KPH
rain 1hr
cm
rain 24hr
cm
rain mn
cm
humidity
%
barometer
mb
20260906131621 23 136 1.6 4.8 0.00 1.55 0.05 93 30.0
20260906131122 23 360 0.0 0.0 0.00 1.55 0.05 93 30.0
20260906130622 23 360 0.0 0.0 0.00 1.55 0.05 92 30.0
20260906130123 23 360 0.0 0.0 0.00 1.55 0.05 92 30.0
20260906125622 23 360 0.0 0.0 0.00 1.55 0.05 92 30.0
20260906125121 22 356 1.6 3.2 0.00 1.55 0.05 92 30.0
20260906124621 22 295 1.6 3.2 0.00 1.55 0.05 93 30.0
20260906124123 22 308 0.0 1.6 0.00 1.55 0.05 94 30.0
20260906123622 22 360 0.0 0.0 0.00 1.55 0.05 96 30.0
20260906123122 22 360 0.0 0.0 0.00 1.55 0.05 96 30.0
20260906122622 22 360 0.0 0.0 0.00 1.55 0.05 96 30.0
20260906122122 22 360 0.0 0.0 0.00 1.55 0.05 96 30.0
20260906121622 22 295 0.0 1.6 0.00 1.55 0.05 96 30.0
20260906121122 22 360 0.0 0.0 0.00 1.55 0.05 97 30.0
20260906120622 22 3 0.0 3.2 0.00 1.55 0.05 97 30.0
20260906120122 22 360 0.0 0.0 0.00 1.55 0.05 97 30.0
20260906115622 22 360 0.0 0.0 0.00 1.55 0.05 97 30.0
20260906115121 22 267 0.0 1.6 0.00 1.55 0.05 97 30.0
20260906114621 22 360 0.0 0.0 0.00 1.55 0.05 97 30.0
20260906114122 22 360 0.0 0.0 0.00 1.55 0.05 97 30.0
20260906113622 22 360 0.0 0.0 0.00 1.55 0.05 97 30.0
20260906113121 22 360 0.0 0.0 0.00 1.55 0.05 96 30.0
20260906112622 22 360 0.0 0.0 0.00 1.55 0.05 96 30.0
20260906111632 22 360 0.0 0.0 0.00 1.55 0.05 95 30.0
20260906111121 22 360 0.0 0.0 0.00 1.55 0.05 95 30.0
20260906110627 22 306 1.6 1.6 0.00 1.55 0.05 95 30.0
20260906110122 22 337 1.6 3.2 0.00 1.55 0.05 96 30.0
20260906105621 22 344 0.0 1.6 0.00 1.55 0.05 95 30.0
20260906105121 22 293 0.0 3.2 0.00 1.55 0.05 95 30.0
20260906104622 22 360 0.0 0.0 0.00 1.55 0.05 96 29.9
20260906104122 22 360 0.0 0.0 0.00 1.55 0.05 95 29.9
20260906103622 22 301 0.0 1.6 0.00 1.55 0.05 96 29.9
20260906103121 22 360 0.0 0.0 0.00 1.55 0.05 96 29.9
20260906102622 22 310 0.0 0.0 0.00 1.55 0.05 96 29.9
20260906102121 22 360 0.0 0.0 0.03 1.55 0.05 96 29.9
20260906101621 22 334 0.0 1.6 0.05 1.55 0.05 95 29.9
20260906101121 22 360 0.0 0.0 0.05 1.55 0.05 95 29.9
20260906100621 22 360 0.0 0.0 0.05 1.55 0.05 95 29.9
20260906100122 22 360 0.0 0.0 0.05 1.55 0.05 94 29.9
20260906095623 22 360 0.0 0.0 0.05 1.55 0.05 93 29.9
20260906095121 22 290 0.0 0.0 0.05 1.55 0.05 93 29.9
20260906094622 22 173 0.0 1.6 0.05 1.55 0.05 94 29.9
20260906094122 23 331 0.0 0.0 0.05 1.55 0.05 94 29.9
20260906093622 23 360 0.0 0.0 0.05 1.55 0.05 94 29.9
20260906093122 23 352 1.6 4.8 0.05 1.52 0.05 97 29.9
20260906092622 23 360 0.0 0.0 0.00 1.52 0.05 97 29.9
20260906092121 23 360 0.0 0.0 0.00 1.52 0.05 97 29.9
20260906091621 22 360 0.0 0.0 0.00 1.50 0.00 97 29.9
20260906091122 22 122 0.0 1.6 0.00 1.50 0.00 97 29.9
20260906090623 22 360 0.0 0.0 0.00 1.50 0.00 96 29.9
20260906090123 22 360 0.0 0.0 0.00 1.50 0.00 96 29.9
20260906085622 22 360 0.0 0.0 0.00 1.50 0.00 95 29.9
20260906085124 23 360 0.0 0.0 0.00 1.50 0.00 95 29.9
20260906084623 23 360 0.0 0.0 0.00 1.50 0.00 96 29.9
20260906084122 23 360 0.0 0.0 0.00 1.50 0.00 96 29.9
20260906083622 23 165 0.0 0.0 0.00 1.50 0.00 95 29.9
20260906083122 23 136 0.0 1.6 0.00 1.50 0.00 96 30.0
20260906082622 23 360 0.0 0.0 0.00 1.50 0.00 97 30.0
20260906082130 23 237 1.6 3.2 0.00 1.50 0.00 96 30.0
20260906081622 23 360 0.0 0.0 0.00 1.50 0.00 97 30.0
20260906081123 23 248 0.0 3.2 0.00 1.50 0.00 97 30.0
20260906080621 23 202 0.0 1.6 0.00 1.50 0.00 97 30.0
20260906080122 23 360 0.0 0.0 0.00 1.50 0.00 98 30.0
20260906075622 23 163 0.0 0.0 0.00 1.50 0.00 97 30.0
20260906075122 23 282 1.6 1.6 0.00 1.50 0.00 97 30.0
20260906074622 23 145 0.0 3.2 0.00 1.50 0.00 97 30.0
20260906074126 23 338 0.0 3.2 0.00 1.50 0.00 98 30.0
20260906073622 23 321 0.0 0.0 0.00 1.50 0.00 98 30.0
20260906073122 23 360 0.0 0.0 0.00 1.50 0.00 98 30.0
20260906072622 23 242 0.0 1.6 0.00 1.50 0.00 99 30.0
20260906072122 23 360 0.0 0.0 0.00 1.50 0.00 99 30.0
20260906071621 23 360 0.0 0.0 0.00 1.50 0.00 99 30.0
20260906071125 23 360 0.0 0.0 0.00 1.50 0.00 98 30.0
20260906070622 23 360 0.0 0.0 0.00 1.50 0.00 98 30.0
20260906070122 23 360 0.0 0.0 0.00 1.50 0.00 98 30.0
20260906065622 23 95 0.0 0.0 0.00 1.50 0.00 98 30.0
20260906065128 23 360 0.0 0.0 0.00 1.50 0.00 98 30.0
20260906064621 23 360 0.0 0.0 0.00 1.50 0.00 98 30.0
20260906064122 23 360 0.0 0.0 0.00 1.50 0.00 98 30.0
20260906063622 23 283 0.0 3.2 0.00 1.50 0.00 98 30.0
20260906063122 23 360 0.0 0.0 0.00 1.50 0.00 98 30.0
20260906062629 23 247 0.0 1.6 0.00 1.50 0.00 98 30.0
20260906062122 23 115 0.0 0.0 0.00 1.50 0.00 98 30.0
20260906061621 23 360 0.0 0.0 0.00 1.50 0.00 98 30.0
20260906061122 23 360 0.0 0.0 0.00 1.50 0.00 98 30.0
20260906060621 23 360 0.0 0.0 0.00 1.50 0.00 98 30.0
20260906060123 23 360 0.0 0.0 0.00 1.50 0.00 98 30.0
20260906055621 23 360 0.0 0.0 0.00 1.50 0.00 98 29.9
20260906055122 23 360 0.0 0.0 0.00 1.50 0.00 98 29.9
20260906054622 23 360 0.0 0.0 0.00 1.50 0.00 98 29.9
20260906054122 23 360 0.0 0.0 0.00 1.50 0.00 98 29.9
20260906053622 23 360 0.0 0.0 0.00 1.50 0.00 98 29.9
20260906053121 23 340 0.0 1.6 0.00 1.50 0.00 98 29.9
20260906052623 23 360 0.0 0.0 0.00 1.50 0.00 98 29.9
20260906052121 23 360 0.0 0.0 0.00 1.50 0.00 98 29.9
20260906051621 23 360 0.0 0.0 0.00 1.50 0.00 98 29.9
20260906051122 23 360 0.0 0.0 0.00 1.50 0.00 98 29.9
20260906050621 23 360 0.0 0.0 0.00 1.50 0.00 98 29.9
20260906050122 23 360 0.0 0.0 0.00 1.50 0.00 98 29.9
20260906045622 23 40 0.0 0.0 0.00 1.50 1.50 98 29.9
20260906045122 23 273 0.0 0.0 0.00 1.50 1.50 98 29.9
20260906044622 23 360 0.0 0.0 0.00 1.50 1.50 98 30.0
20260906044122 23 360 0.0 0.0 0.00 1.50 1.50 98 30.0
20260906043622 23 360 0.0 0.0 0.00 1.50 1.50 98 30.0
20260906043122 23 360 0.0 0.0 0.00 1.50 1.50 98 30.0
20260906042621 24 360 0.0 0.0 0.00 1.50 1.50 98 30.0
20260906042121 24 360 0.0 0.0 0.00 1.50 1.50 98 30.0
20260906041622 24 360 0.0 0.0 0.00 1.50 1.50 98 30.0
20260906041122 24 360 0.0 0.0 0.00 1.50 1.50 98 30.0
20260906040622 24 350 0.0 1.6 0.00 1.50 1.50 98 30.0
20260906040122 23 360 0.0 0.0 0.00 1.50 1.50 98 30.0
20260906035622 23 360 0.0 0.0 0.00 1.50 1.50 98 30.0
20260906035121 23 360 0.0 0.0 0.00 1.50 1.50 98 30.0
20260906034623 23 360 0.0 0.0 0.00 1.50 1.50 98 30.0
20260906034122 23 360 0.0 0.0 0.00 1.50 1.50 98 30.0
20260906033621 23 360 0.0 0.0 0.00 1.50 1.50 98 30.0
20260906033121 23 360 0.0 0.0 0.00 1.50 1.50 98 30.0
20260906032625 23 360 0.0 0.0 0.00 1.50 1.50 98 30.0
20260906032122 24 360 0.0 0.0 0.00 1.50 1.50 97 30.0
20260906031621 24 360 0.0 0.0 0.00 1.50 1.50 97 30.0
20260906031122 24 360 0.0 0.0 0.00 1.50 1.50 97 30.0
20260906030621 24 360 0.0 0.0 0.00 1.50 1.50 97 30.0
20260906030122 24 360 0.0 0.0 0.00 1.50 1.50 97 30.0
20260906025622 24 360 0.0 0.0 0.00 1.50 1.50 96 30.0
20260906025122 24 360 0.0 0.0 0.00 1.50 1.50 96 30.0
20260906024621 24 360 0.0 0.0 0.00 1.50 1.50 97 30.0
20260906024121 24 360 0.0 0.0 0.00 1.50 1.50 97 29.9
20260906023621 24 360 0.0 0.0 0.00 1.50 1.50 97 29.9
20260906023121 24 360 0.0 0.0 0.00 1.50 1.50 97 29.9
20260906022622 24 360 0.0 0.0 0.00 1.50 1.50 96 29.9
20260906022121 24 360 0.0 0.0 0.00 1.50 1.50 96 29.9
20260906021621 25 360 0.0 0.0 0.00 1.50 1.50 96 29.9
20260906021122 25 360 0.0 0.0 0.00 1.50 1.50 95 29.9
20260906020622 24 338 0.0 1.6 0.00 1.50 1.50 96 29.9
20260906020122 24 343 0.0 1.6 0.00 1.50 1.50 96 29.9
20260906015622 24 337 0.0 0.0 0.00 1.50 1.50 97 29.9
20260906015122 24 355 0.0 1.6 0.00 1.50 1.50 97 29.9
20260906014622 24 360 0.0 0.0 0.00 1.50 1.50 97 29.9
20260906014122 24 360 0.0 0.0 0.00 1.50 1.50 97 29.9
20260906013623 24 342 0.0 1.6 0.00 1.50 1.50 97 29.9
20260906013121 24 360 0.0 0.0 0.00 1.50 1.50 97 29.9
20260906012623 24 360 0.0 0.0 0.00 1.50 1.50 97 29.9
20260906012122 25 360 0.0 0.0 0.00 1.50 1.50 97 29.9
20260906011623 25 360 0.0 0.0 0.00 1.50 1.50 96 29.9
20260906011122 25 360 0.0 1.6 0.00 1.50 1.50 96 29.9
20260906010621 24 360 0.0 0.0 0.00 1.50 1.50 96 29.9
20260906010122 24 360 0.0 0.0 0.00 1.50 1.50 96 29.9
20260906005622 24 360 0.0 0.0 0.00 1.50 1.50 96 29.9
20260906005121 24 360 0.0 0.0 0.00 1.50 1.50 96 29.9
20260906004623 25 360 0.0 0.0 0.00 1.50 1.50 96 29.9
20260906004122 25 298 0.0 3.2 0.00 1.50 1.50 96 29.9
20260906003621 25 360 0.0 0.0 0.00 1.50 1.50 96 29.9
20260906003121 25 360 0.0 0.0 0.00 1.50 1.50 95 29.9
20260906002624 25 360 0.0 0.0 0.00 1.50 1.50 95 29.9
20260906002121 25 360 0.0 0.0 0.00 1.50 1.50 94 29.9
20260906001621 25 360 0.0 0.0 0.00 1.50 1.50 95 29.9
20260906001122 25 360 0.0 0.0 0.00 1.50 1.50 95 29.9
20260906000622 25 360 0.0 0.0 0.00 1.50 1.50 94 29.9
20260906000121 25 360 0.0 0.0 0.00 1.50 1.50 94 29.9
20260905235621 25 115 0.0 0.0 0.00 1.50 1.50 93 29.9
20260905235121 25 322 0.0 3.2 0.00 1.50 1.50 91 29.9
20260905234623 26 360 0.0 0.0 0.00 1.50 1.50 92 29.9
20260905234121 26 360 0.0 0.0 0.00 1.50 1.50 91 29.9
20260905233621 26 360 0.0 0.0 0.00 1.50 1.50 91 29.9
20260905233121 27 284 1.6 3.2 0.00 1.50 1.50 88 29.9
20260905232622 27 360 0.0 0.0 0.00 1.50 1.50 84 29.9
20260905232123 28 360 0.0 0.0 0.00 1.50 1.50 83 29.9
20260905231622 28 360 0.0 0.0 0.00 1.50 1.50 83 29.9
20260905231121 28 360 0.0 0.0 0.00 1.50 1.50 81 29.9
20260905230622 28 360 0.0 0.0 0.00 1.50 1.50 81 29.9
20260905230121 28 360 0.0 0.0 0.00 1.50 1.50 80 29.9
20260905225625 28 360 0.0 0.0 0.00 1.50 1.50 83 29.9
20260905225121 27 220 0.0 1.6 0.00 1.50 1.50 83 29.9
20260905224621 27 360 0.0 0.0 0.00 1.50 1.50 83 29.9
20260905224122 27 360 0.0 0.0 0.08 1.50 1.50 83 29.9
20260905223622 26 360 0.0 0.0 0.08 1.50 1.50 89 29.9
20260905223123 25 360 0.0 0.0 0.33 1.50 1.50 93 29.9
20260905222621 23 283 1.6 4.8 0.71 1.50 1.50 93 29.9
20260905222122 23 360 0.0 0.0 0.71 1.35 1.35 95 29.9
20260905221622 23 360 0.0 0.0 0.71 1.35 1.35 95 29.9
20260905221122 23 360 0.0 0.0 0.71 1.35 1.35 96 29.9
20260905220622 23 360 0.0 0.0 1.09 1.35 1.35 95 29.9
20260905220122 23 341 3.2 4.8 1.17 1.35 1.35 94 29.9
20260905215623 23 360 0.0 0.0 1.30 1.35 1.35 94 29.9
20260905215122 22 360 0.0 0.0 1.35 1.35 1.35 93 29.9
20260905214622 22 360 3.2 4.8 1.35 1.35 1.35 93 29.9
20260905214122 23 120 1.6 3.2 1.32 1.32 1.32 92 29.9
20260905213621 23 154 0.0 0.0 1.27 1.30 1.30 90 29.9
20260905213122 23 308 1.6 4.8 1.12 1.17 1.17 89 29.9
20260905212621 24 277 4.8 6.4 1.09 1.09 1.09 86 29.9
20260905212122 24 329 4.8 8.0 0.99 1.02 1.02 83 30.0
20260905211622 25 281 4.8 8.0 0.84 0.86 0.86 85 30.0
20260905211121 25 124 0.0 1.6 0.61 0.66 0.66 86 30.0
20260905210623 27 113 3.2 6.4 0.41 0.46 0.46 82 30.0
20260905205632 36 136 3.2 8.0 0.00 0.00 0.00 51 29.9
20260905205121 37 192 1.6 3.2 0.00 0.00 0.00 45 29.9
20260905204622 37 360 0.0 0.0 0.00 0.00 0.00 47 29.9
20260905204121 38 161 1.6 3.2 0.00 0.00 0.00 45 29.9
20260905203622 38 159 3.2 4.8 0.00 0.00 0.00 43 29.9
20260905203122 38 243 0.0 0.0 0.00 0.00 0.00 46 29.9
20260905202622 37 165 1.6 3.2 0.00 0.00 0.00 48 29.9
20260905202122 37 150 3.2 4.8 0.00 0.00 0.00 50 29.9
20260905201626 37 203 3.2 3.2 0.00 0.00 0.00 46 29.9
20260905201122 37 175 3.2 4.8 0.00 0.00 0.00 46 29.9
20260905200621 37 360 0.0 0.0 0.00 0.00 0.00 46 29.9
20260905200123 37 238 1.6 3.2 0.00 0.00 0.00 47 29.9
20260905195623 37 290 3.2 6.4 0.00 0.00 0.00 47 29.9
20260905195122 37 210 4.8 6.4 0.00 0.00 0.00 47 29.9
20260905194622 37 223 1.6 3.2 0.00 0.00 0.00 49 29.9
20260905194121 37 200 4.8 6.4 0.00 0.00 0.00 49 29.9
20260905193623 37 228 1.6 3.2 0.00 0.00 0.00 48 29.9
20260905193122 37 205 3.2 3.2 0.00 0.00 0.00 48 29.9
20260905192622 38 245 3.2 6.4 0.00 0.00 0.00 46 29.9
20260905192121 37 224 1.6 3.2 0.00 0.00 0.00 49 29.9
20260905191621 37 219 3.2 6.4 0.00 0.00 0.00 48 29.9
20260905191121 36 145 3.2 6.4 0.00 0.00 0.00 52 29.9
20260905190623 36 148 1.6 3.2 0.00 0.00 0.00 50 29.9
20260905190124 37 188 3.2 6.4 0.00 0.00 0.00 50 29.9
20260905185622 36 178 1.6 6.4 0.00 0.00 0.00 50 29.9
20260905185122 36 210 1.6 4.8 0.00 0.00 0.00 52 29.9
20260905184622 36 166 1.6 3.2 0.00 0.00 0.00 50 29.9
20260905184123 36 222 3.2 6.4 0.00 0.00 0.00 52 29.9
20260905183622 36 232 3.2 6.4 0.00 0.00 0.00 51 29.9
20260905183121 36 241 3.2 4.8 0.00 0.00 0.00 52 29.9
20260905182623 36 212 0.0 3.2 0.00 0.00 0.00 52 30.0
20260905182122 36 244 3.2 4.8 0.00 0.00 0.00 53 30.0
20260905181622 36 226 3.2 6.4 0.00 0.00 0.00 54 30.0
20260905181121 35 165 0.0 3.2 0.00 0.00 0.00 56 30.0
20260905180622 35 172 1.6 4.8 0.00 0.00 0.00 56 30.0
20260905180122 35 138 0.0 1.6 0.00 0.00 0.00 55 30.0
20260905175621 35 123 0.0 0.0 0.00 0.00 0.00 58 30.0
20260905175122 35 150 0.0 3.2 0.00 0.00 0.00 55 30.0
20260905174621 35 152 0.0 3.2 0.00 0.00 0.00 59 30.0
20260905174122 34 187 3.2 4.8 0.00 0.00 0.00 59 30.0
20260905173622 34 166 3.2 3.2 0.00 0.00 0.00 60 30.0
20260905173121 33 149 1.6 4.8 0.00 0.00 0.00 60 30.0
20260905172624 33 171 1.6 3.2 0.00 0.00 0.00 62 30.0
20260905172122 33 155 3.2 4.8 0.00 0.00 0.00 63 30.0
20260905171624 33 162 1.6 4.8 0.00 0.00 0.00 61 30.0
20260905171128 33 146 1.6 4.8 0.00 0.00 0.00 61 30.0
20260905170621 32 184 0.0 3.2 0.00 0.00 0.00 63 30.0
20260905170122 32 123 0.0 3.2 0.00 0.00 0.00 64 30.0
20260905165622 32 147 0.0 0.0 0.00 0.00 0.00 66 30.0
20260905165122 32 156 1.6 4.8 0.00 0.00 0.00 66 30.0
20260905164622 32 142 1.6 3.2 0.00 0.00 0.00 69 30.0
20260905164122 32 146 0.0 1.6 0.00 0.00 0.00 68 30.0
20260905163622 32 213 4.8 8.0 0.00 0.00 0.00 66 30.0
20260905163123 32 204 1.6 3.2 0.00 0.00 0.00 71 30.0
20260905162621 31 153 0.0 3.2 0.00 0.00 0.00 70 30.0
20260905162121 31 203 3.2 4.8 0.00 0.00 0.00 70 30.0
20260905161621 31 248 3.2 4.8 0.00 0.00 0.00 72 30.0
20260905161121 31 203 3.2 3.2 0.00 0.00 0.00 70 30.0
20260905160622 31 198 3.2 4.8 0.00 0.00 0.00 71 30.0
20260905160123 30 215 0.0 3.2 0.00 0.00 0.00 72 30.0
20260905155622 30 146 0.0 0.0 0.00 0.00 0.00 74 30.0
20260905155121 30 209 1.6 4.8 0.00 0.00 0.00 73 30.0
20260905154621 30 187 1.6 3.2 0.00 0.00 0.00 76 30.0
20260905154121 30 157 0.0 3.2 0.00 0.00 0.00 76 30.0
20260905153622 29 142 1.6 3.2 0.00 0.00 0.00 76 30.0
20260905153122 29 206 3.2 6.4 0.00 0.00 0.00 76 30.0
20260905152622 28 178 1.6 3.2 0.00 0.00 0.00 78 30.0
20260905152123 28 165 1.6 4.8 0.00 0.00 0.00 76 30.0
20260905151621 28 128 0.0 1.6 0.00 0.00 0.00 78 30.0
20260905151122 28 190 3.2 4.8 0.00 0.00 0.00 78 30.0
20260905150622 28 178 1.6 3.2 0.00 0.00 0.00 78 30.0
20260905150121 28 184 3.2 4.8 0.00 0.00 0.00 79 30.0
20260905145622 28 85 0.0 1.6 0.00 0.00 0.00 81 30.0
20260905145122 28 129 1.6 3.2 0.00 0.00 0.00 82 30.0
20260905144622 28 200 1.6 4.8 0.00 0.00 0.00 81 30.0
20260905144122 27 201 1.6 4.8 0.00 0.00 0.00 79 30.0
20260905143630 27 260 1.6 1.6 0.00 0.00 0.00 80 30.0
20260905143123 27 315 1.6 3.2 0.00 0.00 0.00 79 30.0
20260905142621 27 360 0.0 0.0 0.00 0.00 0.00 82 30.0
20260905142122 27 204 1.6 3.2 0.00 0.00 0.00 84 30.0
20260905141626 27 360 0.0 0.0 0.00 0.00 0.00 84 30.0
20260905141123 26 317 0.0 0.0 0.00 0.00 0.00 84 30.0
20260905140622 26 320 3.2 4.8 0.00 0.00 0.00 84 30.0
20260905135845 26 202 0.0 1.6 0.00 0.00 0.00 85 30.0
20260905135121 26 166 0.0 3.2 0.00 0.00 0.00 87 30.0
20260905134622 26 273 1.6 3.2 0.00 0.00 0.00 86 30.0
20260905134123 26 244 1.6 3.2 0.00 0.00 0.00 87 30.0
20260905133622 26 360 0.0 0.0 0.00 0.00 0.00 88 30.0
20260905133122 25 221 0.0 1.6 0.00 0.00 0.00 88 30.0
20260905132621 25 360 0.0 0.0 0.00 0.00 0.00 90 30.0
20260905132122 25 323 0.0 1.6 0.00 0.00 0.00 91 30.0